When you browse on this site, cookies collect data to enhance your experience and personalize the content and advertising you see.
Visit our Privacy Policy to learn more. By continuing to use the site, you agree to this use of cookies and data.

Stündliche Wetter Fier

Heute, 5 August, Mittwoch

Zeit Temperatur Niederschläge Wind Luftdruck Luftfeuchtigkeit
00:00 +26°C° 0.2 mm 3 m/S 754 mmHg 61%
01:00 +25°C° 0.2 mm 3 m/S 754 mmHg 63%
02:00 +25°C° 2.1 mm 3 m/S 754 mmHg 67%
03:00 +24°C° 2.1 mm 3 m/S 753 mmHg 71%
04:00 +22°C° 2.1 mm 3 m/S 753 mmHg 76%
05:00 +24°C° 2.4 mm 3 m/S 753 mmHg 77%
06:00 +24°C° 2.4 mm 2 m/S 753 mmHg 78%
07:00 +24°C° 2.4 mm 2 m/S 754 mmHg 80%
08:00 +25°C° 1.5 mm 2 m/S 754 mmHg 72%
09:00 +27°C° 1.5 mm 1 m/S 754 mmHg 65%
10:00 +29°C° 1.5 mm 1 m/S 754 mmHg 58%
11:00 +30°C° 0.3 mm 2 m/S 754 mmHg 55%
12:00 +31°C° 0.3 mm 3 m/S 754 mmHg 52%
13:00 +33°C° 0.3 mm 4 m/S 753 mmHg 49%
14:00 +32°C° 0.5 mm 4 m/S 753 mmHg 53%
15:00 +30°C° 0.5 mm 4 m/S 753 mmHg 56%
16:00 +29°C° 0.5 mm 4 m/S 753 mmHg 59%
17:00 +28°C° 0.3 mm 3 m/S 753 mmHg 62%
18:00 +27°C° 0.3 mm 2 m/S 754 mmHg 64%
19:00 +26°C° 0.3 mm 1 m/S 754 mmHg 67%
20:00 +25°C° 0 mm 1 m/S 754 mmHg 69%
21:00 +25°C° 0 mm 1 m/S 754 mmHg 71%
22:00 +24°C° 0 mm 2 m/S 755 mmHg 73%
23:00 +24°C° 0.2 mm 2 m/S 755 mmHg 75%

Morgen, 6 August, Donnerstag

Zeit Temperatur Niederschläge Wind Luftdruck Luftfeuchtigkeit
00:00 +23°C° 0.2 mm 2 m/S 755 mmHg 77%
01:00 +23°C° 0.2 mm 2 m/S 755 mmHg 80%
02:00 +23°C° 0.2 mm 2 m/S 755 mmHg 80%
03:00 +23°C° 0.2 mm 2 m/S 755 mmHg 80%
04:00 +21°C° 0.2 mm 2 m/S 755 mmHg 80%
05:00 +24°C° 0.1 mm 2 m/S 755 mmHg 74%
06:00 +25°C° 0.1 mm 1 m/S 755 mmHg 69%
07:00 +26°C° 0.1 mm 1 m/S 755 mmHg 63%
08:00 +27°C° 0 mm 2 m/S 755 mmHg 57%
09:00 +29°C° 0 mm 2 m/S 756 mmHg 50%
10:00 +30°C° 0 mm 2 m/S 756 mmHg 44%
11:00 +31°C° 0.1 mm 3 m/S 756 mmHg 44%
12:00 +31°C° 0.1 mm 3 m/S 756 mmHg 44%
13:00 +32°C° 0.1 mm 4 m/S 756 mmHg 44%
14:00 +30°C° 0.7 mm 4 m/S 756 mmHg 51%
15:00 +29°C° 0.7 mm 4 m/S 756 mmHg 57%
16:00 +27°C° 0.7 mm 3 m/S 756 mmHg 64%
17:00 +26°C° 0.9 mm 3 m/S 756 mmHg 67%
18:00 +25°C° 0.9 mm 3 m/S 757 mmHg 71%
19:00 +23°C° 0.9 mm 4 m/S 757 mmHg 75%
20:00 +24°C° 0 mm 3 m/S 757 mmHg 75%
21:00 +24°C° 0 mm 3 m/S 757 mmHg 75%
22:00 +24°C° 0 mm 2 m/S 757 mmHg 75%
23:00 +23°C° 0 mm 2 m/S 757 mmHg 74%

übermorgen, 7 August, Freitag

Zeit Temperatur Niederschläge Wind Luftdruck Luftfeuchtigkeit
00:00 +23°C° 0 mm 2 m/S 757 mmHg 74%
01:00 +23°C° 0 mm 2 m/S 757 mmHg 74%
02:00 +23°C° 0 mm 2 m/S 757 mmHg 73%
03:00 +23°C° 0 mm 2 m/S 757 mmHg 71%
04:00 +22°C° 0 mm 1 m/S 757 mmHg 70%
05:00 +24°C° 0 mm 2 m/S 757 mmHg 67%
06:00 +25°C° 0 mm 2 m/S 757 mmHg 63%
07:00 +26°C° 0 mm 2 m/S 757 mmHg 59%
08:00 +27°C° 0 mm 2 m/S 757 mmHg 53%
09:00 +29°C° 0 mm 2 m/S 758 mmHg 47%
10:00 +31°C° 0 mm 2 m/S 758 mmHg 42%
11:00 +31°C° 0 mm 3 m/S 758 mmHg 41%
12:00 +33°C° 0 mm 3 m/S 757 mmHg 40%
13:00 +33°C° 0 mm 4 m/S 757 mmHg 40%
14:00 +33°C° 0.1 mm 4 m/S 757 mmHg 42%
15:00 +31°C° 0.1 mm 3 m/S 757 mmHg 45%
16:00 +30°C° 0.1 mm 3 m/S 757 mmHg 48%
17:00 +29°C° 0.2 mm 3 m/S 757 mmHg 54%
18:00 +28°C° 0.2 mm 2 m/S 757 mmHg 59%
19:00 +26°C° 0.2 mm 2 m/S 758 mmHg 65%
20:00 +26°C° 0.1 mm 2 m/S 758 mmHg 67%
21:00 +26°C° 0.1 mm 2 m/S 758 mmHg 69%
22:00 +25°C° 0.1 mm 2 m/S 758 mmHg 71%
23:00 +25°C° 0.1 mm 2 m/S 757 mmHg 70%

8 August, Samstag

Zeit Temperatur Niederschläge Wind Luftdruck Luftfeuchtigkeit
00:00 +25°C° 0.1 mm 2 m/S 757 mmHg 70%
01:00 +25°C° 0.1 mm 2 m/S 757 mmHg 69%
02:00 +25°C° 0 mm 2 m/S 757 mmHg 69%
03:00 +24°C° 0 mm 2 m/S 757 mmHg 69%
04:00 +24°C° 0 mm 2 m/S 756 mmHg 69%
05:00 +25°C° 0 mm 2 m/S 756 mmHg 65%
06:00 +26°C° 0 mm 1 m/S 756 mmHg 61%
07:00 +27°C° 0 mm 1 m/S 756 mmHg 58%
08:00 +29°C° 0 mm 1 m/S 756 mmHg 52%
09:00 +30°C° 0 mm 1 m/S 757 mmHg 47%
10:00 +32°C° 0 mm 2 m/S 757 mmHg 42%
11:00 +32°C° 0 mm 2 m/S 756 mmHg 41%
12:00 +34°C° 0 mm 3 m/S 756 mmHg 40%
13:00 +34°C° 0 mm 4 m/S 756 mmHg 40%
14:00 +32°C° 0.5 mm 4 m/S 756 mmHg 49%
15:00 +29°C° 0.5 mm 5 m/S 756 mmHg 58%
16:00 +27°C° 0.5 mm 5 m/S 756 mmHg 67%
17:00 +26°C° 0.2 mm 4 m/S 756 mmHg 68%
18:00 +25°C° 0.2 mm 3 m/S 756 mmHg 69%
19:00 +25°C° 0.2 mm 2 m/S 756 mmHg 69%
20:00 +24°C° 0 mm 2 m/S 756 mmHg 68%
21:00 +24°C° 0 mm 1 m/S 756 mmHg 67%
22:00 +24°C° 0 mm 1 m/S 756 mmHg 66%
23:00 +24°C° 0 mm 2 m/S 756 mmHg 66%

9 August, Sonntag

Zeit Temperatur Niederschläge Wind Luftdruck Luftfeuchtigkeit
00:00 +24°C° 0 mm 2 m/S 756 mmHg 67%
01:00 +24°C° 0 mm 3 m/S 756 mmHg 67%
02:00 +24°C° 0 mm 3 m/S 756 mmHg 67%
03:00 +24°C° 0 mm 3 m/S 756 mmHg 67%
04:00 +23°C° 0 mm 4 m/S 755 mmHg 66%
05:00 +25°C° 0 mm 3 m/S 756 mmHg 63%
06:00 +26°C° 0 mm 3 m/S 756 mmHg 60%
07:00 +27°C° 0 mm 3 m/S 756 mmHg 56%
08:00 +29°C° 0 mm 3 m/S 756 mmHg 50%
09:00 +31°C° 0 mm 2 m/S 756 mmHg 45%
10:00 +32°C° 0 mm 2 m/S 756 mmHg 39%
11:00 +34°C° 0 mm 2 m/S 756 mmHg 37%
12:00 +35°C° 0 mm 3 m/S 756 mmHg 36%
13:00 +36°C° 0 mm 4 m/S 756 mmHg 34%
14:00 +35°C° 0 mm 4 m/S 756 mmHg 38%
15:00 +34°C° 0 mm 5 m/S 756 mmHg 42%
16:00 +33°C° 0 mm 5 m/S 756 mmHg 46%
17:00 +30°C° 0 mm 4 m/S 756 mmHg 52%
18:00 +29°C° 0 mm 3 m/S 756 mmHg 58%
19:00 +28°C° 0 mm 2 m/S 756 mmHg 65%
20:00 +27°C° 0 mm 2 m/S 757 mmHg 67%
21:00 +27°C° 0 mm 1 m/S 757 mmHg 69%
22:00 +26°C° 0 mm 1 m/S 757 mmHg 71%
23:00 +26°C° 0 mm 1 m/S 757 mmHg 69%

10 August, Montag

Zeit Temperatur Niederschläge Wind Luftdruck Luftfeuchtigkeit
00:00 +26°C° 0 mm 1 m/S 757 mmHg 68%
01:00 +26°C° 0 mm 1 m/S 757 mmHg 66%
02:00 +25°C° 0 mm 1 m/S 757 mmHg 65%
03:00 +25°C° 0 mm 1 m/S 757 mmHg 63%
04:00 +25°C° 0 mm 1 m/S 757 mmHg 61%
05:00 +26°C° 0 mm 1 m/S 757 mmHg 57%
06:00 +28°C° 0 mm 1 m/S 757 mmHg 53%
07:00 +29°C° 0 mm 1 m/S 757 mmHg 49%
08:00 +31°C° 0 mm 1 m/S 757 mmHg 45%
09:00 +32°C° 0 mm 2 m/S 757 mmHg 41%
10:00 +35°C° 0 mm 2 m/S 758 mmHg 36%
11:00 +35°C° 0 mm 3 m/S 757 mmHg 36%
12:00 +36°C° 0 mm 3 m/S 757 mmHg 35%
13:00 +36°C° 0 mm 4 m/S 757 mmHg 35%
14:00 +35°C° 0 mm 5 m/S 757 mmHg 37%
15:00 +35°C° 0 mm 5 m/S 757 mmHg 40%
16:00 +34°C° 0 mm 5 m/S 757 mmHg 42%
17:00 +32°C° 0 mm 4 m/S 757 mmHg 49%
18:00 +30°C° 0 mm 3 m/S 757 mmHg 56%
19:00 +28°C° 0 mm 2 m/S 757 mmHg 63%
20:00 +28°C° 0 mm 2 m/S 758 mmHg 64%
21:00 +27°C° 0 mm 1 m/S 758 mmHg 65%
22:00 +27°C° 0 mm 1 m/S 758 mmHg 66%
23:00 +26°C° 0 mm 1 m/S 758 mmHg 66%
Mehr zeigen